OCN5ZT LGMK-EDDF

Flight info

Callsign OCN5ZT
Flight time N/A
Altitude 36000
Route VARIX L995 KEA UN132 ROPOX UM749 SKP UL617 MAKED DCT LONTA UL608 DOLEV DCT LURID DCT BEDOX DCT SIMBA DCT AKINI T161 DEBHI DEBHI1B
Aircraft A320/M-SDE3FGHIRWY/LB1

Departure

Time N/A
Airport Mykonos Island National Airport (LGMK)

Arrival

Time 2026-05-04 15:42
Airport Frankfurt Main Airport (EDDF)
Time Latitude Longitude Altitude Speed Heading
2026-05-04 15:19 49.10264 10.85864 30330 ft 417 kts 314°
2026-05-04 15:19 49.14496 10.79881 29250 ft 409 kts 313°
2026-05-04 15:20 49.16571 10.76940 28746 ft 405 kts 313°
2026-05-04 15:20 49.18624 10.74023 28247 ft 400 kts 313°
2026-05-04 15:20 49.20641 10.71117 27748 ft 395 kts 312°
2026-05-04 15:20 49.22555 10.68207 27299 ft 390 kts 310°
2026-05-04 15:21 49.24434 10.65239 26818 ft 386 kts 309°
2026-05-04 15:21 49.26274 10.62279 26387 ft 381 kts 309°
2026-05-04 15:21 49.29901 10.56445 25505 ft 374 kts 309°
2026-05-04 15:22 49.31701 10.53577 25070 ft 371 kts 310°
2026-05-04 15:22 49.33464 10.50774 24631 ft 368 kts 310°
2026-05-04 15:22 49.36848 10.44974 23779 ft 360 kts 301°
2026-05-04 15:23 49.38309 10.41775 23407 ft 369 kts 301°
2026-05-04 15:23 49.39793 10.38545 22997 ft 369 kts 301°
2026-05-04 15:23 49.41269 10.35322 22594 ft 368 kts 301°
2026-05-04 15:23 49.42718 10.32148 22198 ft 366 kts 301°
2026-05-04 15:24 49.45618 10.25772 21449 ft 362 kts 301°
2026-05-04 15:24 49.48489 10.19449 20691 ft 358 kts 301°
2026-05-04 15:25 49.49892 10.16346 20330 ft 355 kts 301°
2026-05-04 15:25 49.51300 10.13228 19950 ft 353 kts 301°
2026-05-04 15:25 49.52704 10.10115 19590 ft 351 kts 301°
2026-05-04 15:26 49.55482 10.03964 18877 ft 348 kts 301°
2026-05-04 15:26 49.56863 10.00909 18525 ft 346 kts 301°
2026-05-04 15:26 49.59591 9.94838 17758 ft 343 kts 301°
2026-05-04 15:27 49.60939 9.91820 17367 ft 341 kts 301°
2026-05-04 15:27 49.63624 9.85833 16591 ft 338 kts 301°
2026-05-04 15:28 49.66269 9.79917 15845 ft 335 kts 301°
2026-05-04 15:28 49.67588 9.76956 15602 ft 334 kts 301°
2026-05-04 15:28 49.70217 9.71063 15109 ft 332 kts 301°
2026-05-04 15:29 49.71525 9.68126 14859 ft 331 kts 301°
2026-05-04 15:30 49.76700 9.56461 13899 ft 327 kts 301°
2026-05-04 15:30 49.80519 9.47833 12879 ft 321 kts 301°
2026-05-04 15:31 49.83033 9.42125 12047 ft 320 kts 301°
2026-05-04 15:31 49.84273 9.39306 11709 ft 319 kts 301°
2026-05-04 15:32 49.87134 9.30188 11014 ft 312 kts 283°
2026-05-04 15:32 49.88368 9.23739 10483 ft 311 kts 283°
2026-05-04 15:33 49.89596 9.17344 9699 ft 308 kts 283°
2026-05-04 15:34 49.92042 9.08711 8209 ft 291 kts 319°
2026-05-04 15:34 49.93872 9.07342 7932 ft 295 kts 346°
2026-05-04 15:34 49.97957 9.06630 7428 ft 296 kts 354°
2026-05-04 15:35 50.02055 9.06107 7004 ft 294 kts 354°
2026-05-04 15:35 50.04084 9.05689 6883 ft 292 kts 341°
2026-05-04 15:35 50.05886 9.04342 6479 ft 292 kts 326°
2026-05-04 15:36 50.09286 9.00896 5459 ft 286 kts 324°
2026-05-04 15:36 50.10903 8.99121 4957 ft 282 kts 315°
2026-05-04 15:36 50.12004 8.96660 4467 ft 274 kts 287°
2026-05-04 15:37 50.12202 8.93798 4199 ft 261 kts 261°
2026-05-04 15:37 50.11700 8.91221 4031 ft 243 kts 250°
2026-05-04 15:37 50.11142 8.88854 3995 ft 222 kts 250°
2026-05-04 15:37 50.10638 8.86701 3982 ft 204 kts 250°
2026-05-04 15:38 50.10161 8.84670 3817 ft 195 kts 250°
2026-05-04 15:38 50.09700 8.82712 3566 ft 190 kts 250°
2026-05-04 15:38 50.09250 8.80803 3321 ft 186 kts 251°
2026-05-04 15:38 50.08807 8.78925 3070 ft 183 kts 251°
2026-05-04 15:39 50.08367 8.77060 2831 ft 183 kts 251°
2026-05-04 15:39 50.07929 8.75205 2585 ft 182 kts 251°
2026-05-04 15:39 50.07059 8.71528 2106 ft 179 kts 250°
2026-05-04 15:40 50.06614 8.69648 1856 ft 188 kts 251°
2026-05-04 15:40 50.06185 8.67842 1610 ft 168 kts 251°
2026-05-04 15:40 50.05798 8.66211 1401 ft 154 kts 252°
2026-05-04 15:40 50.05445 8.64727 1209 ft 140 kts 251°
2026-05-04 15:41 50.05118 8.63348 1032 ft 136 kts 249°
2026-05-04 15:41 50.04787 8.61953 841 ft 139 kts 249°
2026-05-04 15:41 50.04456 8.60560 671 ft 136 kts 250°
2026-05-04 15:41 50.04132 8.59198 484 ft 131 kts 250°
2026-05-04 15:42 50.03827 8.57914 366 ft 121 kts 250°
2026-05-04 15:42 50.03588 8.56896 357 ft 76 kts 249°
2026-05-04 15:42 50.03461 8.56367 358 ft 36 kts 251°
2026-05-04 15:42 50.03437 8.56074 349 ft 19 kts 274°
2026-05-04 15:43 50.03457 8.55886 345 ft 14 kts 279°
2026-05-04 15:43 50.03468 8.55777 347 ft 5 kts 278°
2026-05-04 15:43 50.03473 8.55728 346 ft 0 kts 279°
2026-05-04 15:44 50.03477 8.55696 345 ft 5 kts 279°
2026-05-04 15:44 50.03485 8.55623 347 ft 9 kts 279°
2026-05-04 15:45 50.03492 8.55480 345 ft 16 kts 263°
2026-05-04 15:45 50.03453 8.55308 344 ft 18 kts 249°
2026-05-04 15:45 50.03407 8.55114 345 ft 20 kts 250°
2026-05-04 15:45 50.03355 8.54899 346 ft 22 kts 249°
2026-05-04 15:46 50.03304 8.54688 334 ft 20 kts 250°
2026-05-04 15:46 50.03291 8.54497 338 ft 16 kts 321°
2026-05-04 15:46 50.03338 8.54467 338 ft 1 kts 340°
2026-05-04 15:50 50.03352 8.54458 335 ft 7 kts 339°
2026-05-04 15:50 50.03433 8.54411 353 ft 16 kts 339°
2026-05-04 15:50 50.03545 8.54348 346 ft 19 kts 341°
2026-05-04 15:51 50.03659 8.54332 347 ft 16 kts 50°
2026-05-04 15:51 50.03700 8.54492 349 ft 12 kts 70°
2026-05-04 15:51 50.03715 8.54555 355 ft 5 kts 69°
2026-05-04 15:51 50.03726 8.54599 353 ft 4 kts 69°
2026-05-04 15:52 50.03740 8.54663 350 ft 8 kts 69°
2026-05-04 15:52 50.03769 8.54780 349 ft 15 kts 70°
2026-05-04 15:52 50.03795 8.54892 356 ft 18 kts 71°
2026-05-04 15:52 50.03860 8.55162 352 ft 21 kts 71°
2026-05-04 15:53 50.03910 8.55371 359 ft 16 kts 69°
2026-05-04 15:53 50.03950 8.55539 351 ft 17 kts 70°
2026-05-04 15:53 50.03978 8.55659 351 ft 18 kts 69°
2026-05-04 15:53 50.04008 8.55783 351 ft 8 kts 69°
2026-05-04 15:54 50.04015 8.55809 357 ft 0 kts 69°
2026-05-04 15:54 50.04019 8.55828 352 ft 6 kts 70°
2026-05-04 15:54 50.04057 8.55952 355 ft 15 kts 44°
2026-05-04 15:54 50.04148 8.55940 357 ft 8 kts 340°
2026-05-04 15:55 50.04168 8.55929 357 ft 0 kts 340°
2026-05-04 15:55 50.04177 8.55923 355 ft 6 kts 338°
2026-05-04 15:56 50.04242 8.55944 356 ft 12 kts 36°
2026-05-04 15:56 50.04318 8.55944 362 ft 12 kts 339°
2026-05-04 15:56 50.04394 8.55928 363 ft 12 kts 25°
2026-05-04 15:56 50.04435 8.56046 359 ft 13 kts 69°
2026-05-04 15:57 50.04444 8.56131 358 ft 5 kts 136°
2026-05-04 15:57 50.04409 8.56154 364 ft 6 kts 153°
2026-05-04 15:57 50.04391 8.56167 360 ft 1 kts 155°
2026-05-04 15:57 50.04390 8.56168 360 ft 0 kts 154°